| time (UTC) | temp C | wind direction | speed KPH | gust KPH | rain 1hr cm | rain 24hr cm | rain mn cm | humidity % | barometer mb |
| 20260510080814 | 20 | 343 | 0.0 | 1.6 | 0.00 | 8.03 | 0.00 | 96 | 1012.2 |
| 20260510080312 | 20 | 343 | 0.0 | 1.6 | 0.00 | 8.03 | 0.00 | 96 | 1012.2 |
| 20260510075810 | 20 | 343 | 0.0 | 1.6 | 0.00 | 8.03 | 0.00 | 96 | 1012.2 |
| 20260510075310 | 20 | 343 | 0.0 | 1.6 | 0.00 | 8.03 | 0.00 | 96 | 1012.3 |
| 20260510074810 | 20 | 343 | 0.0 | 1.6 | 0.00 | 8.03 | 0.00 | 96 | 1012.3 |
| 20260510074309 | 20 | 343 | 0.0 | 1.6 | 0.00 | 8.03 | 0.00 | 96 | 1012.2 |
| 20260510073807 | 20 | 343 | 0.0 | 1.6 | 0.00 | 8.03 | 0.00 | 96 | 1012.2 |
| 20260510073305 | 20 | 343 | 0.0 | 1.6 | 0.00 | 8.03 | 0.00 | 96 | 1012.2 |
| 20260510072806 | 20 | 343 | 0.0 | 1.6 | 0.00 | 8.03 | 0.00 | 96 | 1012.3 |
| 20260510072306 | 20 | 342 | 0.0 | 3.2 | 0.00 | 8.03 | 0.00 | 96 | 1012.3 |
| 20260510071806 | 20 | 342 | 0.0 | 3.2 | 0.00 | 8.05 | 0.00 | 96 | 1012.3 |
| 20260510071307 | 20 | 342 | 1.6 | 3.2 | 0.00 | 8.10 | 0.00 | 96 | 1012.2 |
| 20260510071240 | 20 | 69 | 0.0 | 3.2 | 0.00 | 8.10 | 0.00 | 96 | 1012.3 |
| 20260510070508 | 20 | 69 | 0.0 | 3.2 | 0.00 | 8.10 | 0.00 | 96 | 1012.3 |
| 20260510065307 | 20 | 68 | 0.0 | 1.6 | 0.00 | 8.10 | 0.00 | 96 | 1012.2 |
| 20260510064807 | 20 | 68 | 0.0 | 3.2 | 0.00 | 8.10 | 0.00 | 96 | 1012.2 |
| 20260510064306 | 20 | 68 | 0.0 | 3.2 | 0.00 | 8.10 | 0.00 | 96 | 1012.2 |
| 20260510063805 | 20 | 68 | 0.0 | 1.6 | 0.00 | 8.10 | 0.00 | 96 | 1012.2 |
| 20260510063306 | 20 | 68 | 0.0 | 1.6 | 0.00 | 8.10 | 0.00 | 96 | 1012.2 |
| 20260510062901 | 20 | 68 | 0.0 | 1.6 | 0.00 | 8.10 | 0.00 | 96 | 1012.2 |
| 20260510062409 | 20 | 68 | 0.0 | 1.6 | 0.00 | 8.10 | 0.00 | 96 | 1012.1 |
| 20260510060806 | 20 | 68 | 0.0 | 1.6 | 0.00 | 8.10 | 0.00 | 96 | 1012.1 |
| 20260510060724 | 20 | 68 | 0.0 | 3.2 | 0.00 | 8.10 | 0.00 | 96 | 1012.3 |
| 20260510055806 | 20 | 68 | 0.0 | 3.2 | 0.00 | 8.10 | 0.00 | 96 | 1012.2 |
| 20260510055307 | 20 | 72 | 0.0 | 1.6 | 0.00 | 8.10 | 0.00 | 96 | 1012.2 |
| 20260510054944 | 20 | 72 | 0.0 | 3.2 | 0.00 | 8.10 | 0.00 | 96 | 1012.1 |
| 20260510054206 | 20 | 355 | 0.0 | 1.6 | 0.00 | 8.10 | 0.00 | 96 | 1012.2 |
| 20260510053306 | 20 | 355 | 0.0 | 1.6 | 0.00 | 8.10 | 0.00 | 96 | 1012.2 |
| 20260510052806 | 20 | 351 | 0.0 | 3.2 | 0.00 | 8.10 | 0.00 | 96 | 1012.2 |
| 20260510052307 | 20 | 351 | 0.0 | 3.2 | 0.00 | 8.13 | 0.00 | 96 | 1012.1 |
| 20260510051807 | 20 | 351 | 0.0 | 1.6 | 0.00 | 8.13 | 0.00 | 96 | 1012.2 |
| 20260510051710 | 20 | 351 | 0.0 | 1.6 | 0.00 | 8.13 | 0.00 | 96 | 1012.2 |
| 20260510050807 | 20 | 351 | 0.0 | 1.6 | 0.00 | 8.13 | 0.00 | 96 | 1012.3 |
| 20260510050305 | 20 | 351 | 0.0 | 1.6 | 0.00 | 8.13 | 0.00 | 96 | 1012.6 |
| 20260510045806 | 20 | 351 | 0.0 | 1.6 | 0.00 | 8.13 | 8.13 | 96 | 1012.6 |
| 20260510045306 | 20 | 351 | 0.0 | 3.2 | 0.00 | 8.13 | 8.13 | 96 | 1012.5 |
| 20260510044806 | 20 | 351 | 0.0 | 3.2 | 0.00 | 8.13 | 8.13 | 96 | 1012.6 |
| 20260510044306 | 20 | 351 | 0.0 | 3.2 | 0.00 | 8.13 | 8.13 | 96 | 1012.7 |
| 20260510043806 | 20 | 351 | 0.0 | 3.2 | 0.00 | 8.13 | 8.13 | 96 | 1012.8 |
| 20260510043306 | 20 | 351 | 0.0 | 3.2 | 0.00 | 8.13 | 8.13 | 96 | 1012.7 |
| 20260510042806 | 20 | 351 | 0.0 | 1.6 | 0.00 | 8.15 | 8.13 | 96 | 1012.7 |
| 20260510042307 | 20 | 351 | 1.6 | 3.2 | 0.00 | 8.15 | 8.13 | 96 | 1012.6 |
| 20260510041806 | 20 | 351 | 1.6 | 3.2 | 0.00 | 8.15 | 8.13 | 96 | 1012.7 |
| 20260510041657 | 20 | 351 | 1.6 | 3.2 | 0.00 | 8.15 | 8.13 | 96 | 1012.6 |
| 20260510040806 | 20 | 99 | 0.0 | 3.2 | 0.00 | 8.15 | 8.13 | 96 | 1012.3 |
| 20260510040305 | 19 | 99 | 0.0 | 3.2 | 0.00 | 8.23 | 8.13 | 96 | 1012.2 |
| 20260510035806 | 19 | 99 | 0.0 | 3.2 | 0.00 | 8.36 | 8.13 | 96 | 1012.2 |
| 20260510035306 | 19 | 99 | 0.0 | 1.6 | 0.00 | 8.38 | 8.13 | 96 | 1011.9 |
| 20260510034805 | 19 | 99 | 0.0 | 1.6 | 0.00 | 8.41 | 8.13 | 96 | 1011.8 |
| 20260510034306 | 19 | 99 | 0.0 | 3.2 | 0.00 | 8.41 | 8.13 | 96 | 1011.8 |
| 20260510033806 | 19 | 99 | 0.0 | 3.2 | 0.00 | 8.43 | 8.13 | 96 | 1011.9 |
| 20260510033306 | 19 | 100 | 0.0 | 3.2 | 0.00 | 8.43 | 8.13 | 96 | 1011.7 |
| 20260510032806 | 19 | 99 | 0.0 | 1.6 | 0.00 | 8.43 | 8.13 | 96 | 1011.6 |
| 20260510032306 | 19 | 99 | 0.0 | 3.2 | 0.00 | 8.43 | 8.13 | 96 | 1011.5 |
| 20260510031806 | 19 | 99 | 0.0 | 3.2 | 0.00 | 8.43 | 8.13 | 96 | 1011.6 |
| 20260510031741 | 19 | 99 | 0.0 | 3.2 | 0.00 | 8.43 | 8.13 | 96 | 1011.7 |
| 20260510030806 | 19 | 99 | 0.0 | 3.2 | 0.00 | 8.43 | 8.13 | 96 | 1011.8 |
| 20260510030306 | 19 | 98 | 0.0 | 3.2 | 0.00 | 8.43 | 8.13 | 96 | 1011.8 |
| 20260510025806 | 19 | 96 | 1.6 | 3.2 | 0.00 | 8.43 | 8.13 | 96 | 1011.6 |
| 20260510025306 | 19 | 96 | 1.6 | 3.2 | 0.00 | 8.43 | 8.13 | 96 | 1011.6 |
| 20260510024806 | 19 | 94 | 0.0 | 4.8 | 0.00 | 8.43 | 8.13 | 96 | 1011.6 |
| 20260510024306 | 19 | 95 | 1.6 | 4.8 | 0.00 | 8.43 | 8.13 | 96 | 1011.7 |
| 20260510023805 | 19 | 130 | 1.6 | 4.8 | 0.03 | 8.43 | 8.13 | 96 | 1011.9 |
| 20260510023305 | 19 | 82 | 0.0 | 3.2 | 0.03 | 8.43 | 8.13 | 96 | 1012.1 |
| 20260510022806 | 19 | 333 | 0.0 | 1.6 | 0.03 | 8.43 | 8.13 | 96 | 1012.4 |
| 20260510022621 | 19 | 333 | 1.6 | 3.2 | 0.03 | 8.43 | 8.13 | 96 | 1012.6 |
| 20260510021806 | 19 | 332 | 1.6 | 4.8 | 0.03 | 8.43 | 8.13 | 96 | 1012.6 |
| 20260510021306 | 19 | 332 | 1.6 | 4.8 | 0.03 | 8.43 | 8.13 | 96 | 1012.3 |
| 20260510021147 | 19 | 258 | 1.6 | 4.8 | 0.03 | 8.43 | 8.13 | 96 | 1011.8 |
| 20260510020306 | 19 | 230 | 1.6 | 4.8 | 0.03 | 8.43 | 8.13 | 96 | 1011.6 |
| 20260510015805 | 19 | 141 | 1.6 | 4.8 | 0.03 | 8.41 | 8.13 | 96 | 1011.6 |
| 20260510015306 | 19 | 140 | 1.6 | 4.8 | 0.03 | 8.41 | 8.13 | 96 | 1011.7 |
| 20260510014803 | 19 | 153 | 1.6 | 8.0 | 0.05 | 8.41 | 8.13 | 96 | 1011.6 |
| 20260510014507 | 19 | 119 | 1.6 | 8.0 | 0.05 | 8.41 | 8.13 | 96 | 1011.7 |
| 20260510013304 | 19 | 96 | 0.0 | 9.7 | 0.03 | 8.41 | 8.10 | 96 | 1012.0 |
| 20260510012804 | 19 | 112 | 0.0 | 1.6 | 0.03 | 8.41 | 8.10 | 96 | 1012.1 |
| 20260510012306 | 19 | 112 | 0.0 | 3.2 | 0.05 | 8.41 | 8.10 | 96 | 1012.0 |
| 20260510011804 | 19 | 112 | 1.6 | 4.8 | 0.05 | 8.41 | 8.10 | 96 | 1011.8 |
| 20260510011304 | 19 | 112 | 1.6 | 4.8 | 0.05 | 8.41 | 8.10 | 96 | 1012.0 |
| 20260510011252 | 19 | 111 | 0.0 | 4.8 | 0.05 | 8.41 | 8.10 | 96 | 1012.1 |
| 20260510010747 | 19 | 78 | 0.0 | 1.6 | 0.05 | 8.41 | 8.10 | 96 | 1012.4 |
| 20260510005804 | 19 | 78 | 0.0 | 1.6 | 0.05 | 8.36 | 8.10 | 96 | 1012.5 |
| 20260510005752 | 19 | 78 | 1.6 | 3.2 | 0.05 | 8.36 | 8.10 | 96 | 1012.7 |
| 20260510004804 | 19 | 78 | 0.0 | 3.2 | 0.03 | 8.36 | 8.08 | 96 | 1012.6 |
| 20260510004748 | 19 | 78 | 0.0 | 1.6 | 0.03 | 8.36 | 8.08 | 96 | 1012.3 |
| 20260510003802 | 19 | 78 | 0.0 | 1.6 | 0.03 | 8.36 | 8.08 | 96 | 1012.2 |
| 20260510003302 | 19 | 78 | 0.0 | 1.6 | 0.03 | 8.36 | 8.08 | 96 | 1012.2 |
| 20260510002759 | 19 | 78 | 0.0 | 0.0 | 0.03 | 8.36 | 8.08 | 96 | 1012.0 |
| 20260510002258 | 19 | 78 | 0.0 | 1.6 | 0.00 | 8.36 | 8.05 | 96 | 1012.1 |
| 20260510001756 | 19 | 78 | 0.0 | 3.2 | 0.00 | 8.36 | 8.05 | 96 | 1012.0 |
| 20260510001716 | 19 | 78 | 1.6 | 3.2 | 0.00 | 8.36 | 8.05 | 96 | 1011.8 |
| 20260510000754 | 19 | 78 | 0.0 | 3.2 | 0.00 | 8.36 | 8.05 | 96 | 1011.6 |
| 20260510000256 | 19 | 76 | 0.0 | 3.2 | 0.00 | 8.36 | 8.05 | 96 | 1011.4 |
| 20260510000241 | 19 | 76 | 1.6 | 3.2 | 0.00 | 8.36 | 8.05 | 96 | 1011.2 |
| 20260509235715 | 19 | 76 | 0.0 | 3.2 | 0.00 | 8.36 | 8.05 | 96 | 1011.0 |
| 20260509234746 | 19 | 90 | 0.0 | 3.2 | 0.03 | 8.36 | 8.05 | 96 | 1010.8 |
| 20260509234247 | 19 | 90 | 0.0 | 4.8 | 0.03 | 8.36 | 8.05 | 96 | 1010.7 |
| 20260509233744 | 19 | 90 | 1.6 | 4.8 | 0.05 | 8.36 | 8.05 | 96 | 1010.7 |
| 20260509233731 | 19 | 194 | 1.6 | 3.2 | 0.05 | 8.36 | 8.05 | 96 | 1010.7 |
| 20260509232744 | 19 | 194 | 1.6 | 3.2 | 0.08 | 8.36 | 8.05 | 96 | 1010.5 |
| 20260509232242 | 19 | 126 | 1.6 | 8.0 | 0.10 | 8.36 | 8.05 | 96 | 1010.4 |
| 20260509231744 | 19 | 126 | 3.2 | 11.3 | 0.13 | 8.36 | 8.05 | 96 | 1010.0 |
| 20260509231243 | 19 | 131 | 3.2 | 11.3 | 0.15 | 8.36 | 8.05 | 96 | 1010.1 |
| 20260509230739 | 19 | 117 | 3.2 | 11.3 | 0.20 | 8.38 | 8.05 | 96 | 1010.0 |
| 20260509230239 | 19 | 116 | 3.2 | 6.4 | 0.23 | 8.38 | 8.05 | 96 | 1010.1 |
| 20260509225740 | 19 | 122 | 1.6 | 6.4 | 0.25 | 8.18 | 8.05 | 96 | 1010.4 |
| 20260509225243 | 19 | 96 | 1.6 | 11.3 | 0.30 | 8.18 | 8.05 | 96 | 1010.6 |
| 20260509225234 | 19 | 121 | 1.6 | 11.3 | 0.33 | 8.26 | 8.03 | 96 | 1010.7 |
| 20260509224241 | 19 | 80 | 1.6 | 9.7 | 0.38 | 8.33 | 8.03 | 96 | 1010.8 |
| 20260509223737 | 19 | 123 | 1.6 | 9.7 | 0.41 | 8.51 | 8.00 | 96 | 1010.8 |
| 20260509223237 | 19 | 109 | 1.6 | 6.4 | 0.46 | 8.56 | 7.98 | 96 | 1010.8 |
| 20260509222739 | 19 | 86 | 1.6 | 6.4 | 0.46 | 8.56 | 7.98 | 96 | 1010.8 |
| 20260509222235 | 19 | 108 | 1.6 | 3.2 | 0.46 | 8.56 | 7.95 | 96 | 1010.9 |
| 20260509221740 | 19 | 108 | 1.6 | 6.4 | 0.48 | 8.56 | 7.92 | 96 | 1010.9 |
| 20260509221730 | 19 | 111 | 0.0 | 6.4 | 0.51 | 8.56 | 7.87 | 96 | 1011.2 |
| 20260509220736 | 19 | 110 | 0.0 | 1.6 | 0.48 | 8.59 | 7.85 | 96 | 1011.2 |
| 20260509220235 | 19 | 110 | 0.0 | 3.2 | 0.51 | 8.59 | 7.82 | 96 | 1011.4 |
| 20260509215736 | 19 | 110 | 0.0 | 3.2 | 0.53 | 8.10 | 7.77 | 96 | 1011.6 |
| 20260509215235 | 19 | 110 | 0.0 | 3.2 | 0.56 | 8.10 | 7.75 | 96 | 1011.5 |
| 20260509214735 | 19 | 110 | 0.0 | 3.2 | 0.56 | 8.10 | 7.70 | 96 | 1011.0 |
| 20260509214236 | 19 | 110 | 1.6 | 3.2 | 0.58 | 8.10 | 7.65 | 96 | 1010.9 |
| 20260509213735 | 19 | 110 | 0.0 | 3.2 | 0.58 | 8.10 | 7.57 | 96 | 1010.9 |
| 20260509213638 | 19 | 110 | 1.6 | 3.2 | 0.76 | 8.13 | 7.52 | 96 | 1010.9 |
| 20260509212736 | 19 | 110 | 0.0 | 3.2 | 0.79 | 8.15 | 7.49 | 96 | 1011.0 |
| 20260509212236 | 19 | 113 | 0.0 | 4.8 | 0.79 | 8.18 | 7.47 | 96 | 1010.9 |
| 20260509211735 | 19 | 113 | 0.0 | 4.8 | 0.84 | 8.20 | 7.44 | 96 | 1011.1 |
| 20260509211236 | 19 | 115 | 1.6 | 4.8 | 0.84 | 8.20 | 7.39 | 96 | 1011.0 |
| 20260509210735 | 19 | 84 | 1.6 | 4.8 | 0.81 | 8.23 | 7.34 | 96 | 1011.1 |
| 20260509210235 | 19 | 111 | 1.6 | 4.8 | 0.79 | 8.26 | 7.29 | 96 | 1011.1 |
| 20260509205736 | 19 | 235 | 1.6 | 6.4 | 0.74 | 7.52 | 7.24 | 96 | 1011.4 |
| 20260509205235 | 19 | 107 | 1.6 | 6.4 | 0.69 | 7.57 | 7.19 | 96 | 1011.3 |
| 20260509205218 | 19 | 143 | 0.0 | 4.8 | 0.66 | 7.59 | 7.14 | 96 | 1011.4 |
| 20260509204235 | 19 | 143 | 0.0 | 4.8 | 0.64 | 7.62 | 7.06 | 96 | 1011.6 |
| 20260509203733 | 19 | 181 | 0.0 | 3.2 | 0.66 | 7.62 | 6.99 | 96 | 1011.6 |
| 20260509203233 | 19 | 208 | 0.0 | 4.8 | 0.48 | 7.65 | 6.78 | 96 | 1011.8 |
| 20260509202735 | 19 | 208 | 0.0 | 4.8 | 0.51 | 7.65 | 6.73 | 96 | 1011.8 |
| 20260509202714 | 19 | 155 | 0.0 | 1.6 | 0.61 | 7.67 | 6.68 | 96 | 1011.6 |
| 20260509201937 | 19 | 155 | 0.0 | 1.6 | 0.53 | 7.67 | 6.60 | 96 | 1011.7 |
| 20260509200733 | 19 | 155 | 1.6 | 6.4 | 0.66 | 7.70 | 6.55 | 96 | 1011.3 |
| 20260509200234 | 19 | 117 | 1.6 | 6.4 | 0.66 | 7.70 | 6.53 | 96 | 1010.9 |
| 20260509195735 | 19 | 15 | 1.6 | 4.8 | 0.84 | 7.04 | 6.53 | 96 | 1011.3 |
| 20260509195233 | 19 | 43 | 1.6 | 8.0 | 1.02 | 7.04 | 6.50 | 96 | 1011.1 |
| 20260509195210 | 19 | 134 | 3.2 | 11.3 | 0.99 | 7.04 | 6.45 | 96 | 1010.9 |
| 20260509194235 | 19 | 105 | 1.6 | 11.3 | 0.99 | 7.06 | 6.40 | 96 | 1011.2 |
| 20260509193733 | 19 | 200 | 3.2 | 9.7 | 0.91 | 7.06 | 6.35 | 96 | 1011.5 |
| 20260509193234 | 19 | 118 | 3.2 | 11.3 | 0.89 | 7.06 | 6.27 | 96 | 1011.7 |
| 20260509192735 | 19 | 87 | 3.2 | 11.3 | 0.81 | 7.09 | 6.20 | 96 | 1011.6 |
| 20260509192233 | 19 | 202 | 1.6 | 8.0 | 0.71 | 7.11 | 6.10 | 96 | 1011.8 |
| 20260509191735 | 19 | 103 | 1.6 | 6.4 | 0.69 | 7.14 | 6.05 | 96 | 1011.7 |
| 20260509191727 | 19 | 182 | 1.6 | 6.4 | 0.61 | 7.21 | 5.97 | 96 | 1011.6 |
| 20260509190733 | 20 | 191 | 1.6 | 6.4 | 0.51 | 7.34 | 5.89 | 96 | 1012.0 |
| 20260509190233 | 20 | 108 | 1.6 | 9.7 | 0.48 | 7.37 | 5.84 | 96 | 1012.1 |
| 20260509185735 | 20 | 132 | 1.6 | 9.7 | 0.30 | 6.91 | 5.66 | 96 | 1012.0 |
| 20260509185233 | 20 | 217 | 1.6 | 8.0 | 0.10 | 6.91 | 5.49 | 96 | 1012.3 |
| 20260509184734 | 20 | 219 | 1.6 | 8.0 | 0.10 | 6.93 | 5.46 | 96 | 1012.9 |
| 20260509184724 | 20 | 91 | 1.6 | 3.2 | 0.05 | 7.06 | 5.44 | 96 | 1011.7 |
| 20260509183734 | 20 | 89 | 0.0 | 3.2 | 0.05 | 7.21 | 5.44 | 96 | 1012.1 |
| 20260509183233 | 20 | 82 | 0.0 | 3.2 | 0.03 | 7.34 | 5.41 | 96 | 1011.9 |
| 20260509182735 | 20 | 83 | 1.6 | 9.7 | 0.03 | 7.39 | 5.41 | 96 | 1012.0 |
| 20260509182233 | 20 | 81 | 1.6 | 9.7 | 0.00 | 7.57 | 5.38 | 96 | 1011.8 |
| 20260509181733 | 20 | 121 | 1.6 | 6.4 | 0.00 | 8.31 | 5.38 | 96 | 1012.2 |
| 20260509181235 | 20 | 131 | 1.6 | 6.4 | 0.00 | 9.32 | 5.38 | 96 | 1012.4 |
| 20260509180733 | 20 | 186 | 1.6 | 12.9 | 0.03 | 10.06 | 5.38 | 96 | 1012.2 |
| 20260509180233 | 20 | 110 | 1.6 | 12.9 | 0.03 | 10.24 | 5.38 | 96 | 1011.8 |
| 20260509175735 | 20 | 105 | 1.6 | 4.8 | 0.03 | 10.26 | 5.38 | 96 | 1011.7 |
| 20260509175233 | 20 | 114 | 1.6 | 4.8 | 0.03 | 10.34 | 5.38 | 96 | 1011.7 |
| 20260509174733 | 20 | 119 | 1.6 | 6.4 | 0.03 | 10.41 | 5.38 | 96 | 1011.6 |
| 20260509174234 | 20 | 105 | 1.6 | 6.4 | 0.03 | 10.64 | 5.38 | 96 | 1011.6 |
| 20260509173733 | 20 | 80 | 1.6 | 3.2 | 0.03 | 10.92 | 5.38 | 96 | 1011.5 |
| 20260509173233 | 20 | 111 | 1.6 | 4.8 | 0.03 | 11.25 | 5.38 | 96 | 1011.4 |
| 20260509172734 | 20 | 111 | 3.2 | 9.7 | 0.03 | 11.48 | 5.38 | 96 | 1011.6 |
| 20260509172233 | 20 | 130 | 1.6 | 9.7 | 0.03 | 11.81 | 5.38 | 96 | 1011.6 |
| 20260509171733 | 20 | 76 | 1.6 | 4.8 | 0.03 | 12.14 | 5.38 | 96 | 1011.6 |
| 20260509171235 | 19 | 92 | 1.6 | 11.3 | 0.03 | 12.45 | 5.38 | 96 | 1011.6 |
| 20260509170733 | 19 | 101 | 0.0 | 11.3 | 0.00 | 13.00 | 5.36 | 96 | 1011.7 |
| 20260509170233 | 19 | 101 | 1.6 | 4.8 | 0.00 | 14.15 | 5.36 | 96 | 1012.0 |
| 20260509165734 | 19 | 101 | 1.6 | 9.7 | 0.00 | 15.24 | 5.36 | 96 | 1011.9 |
| 20260509165234 | 19 | 138 | 1.6 | 9.7 | 0.00 | 15.82 | 5.36 | 96 | 1011.8 |
| 20260509164734 | 19 | 113 | 1.6 | 6.4 | 0.00 | 16.15 | 5.36 | 96 | 1011.8 |
| 20260509164234 | 19 | 108 | 1.6 | 6.4 | 0.00 | 16.15 | 5.36 | 96 | 1011.7 |
| 20260509163734 | 19 | 98 | 1.6 | 6.4 | 0.00 | 16.15 | 5.36 | 96 | 1012.1 |
| 20260509163233 | 19 | 109 | 1.6 | 6.4 | 0.00 | 16.15 | 5.36 | 96 | 1012.5 |
| 20260509163223 | 19 | 178 | 1.6 | 6.4 | 0.03 | 16.15 | 5.36 | 96 | 1012.4 |
| 20260509162232 | 19 | 113 | 1.6 | 6.4 | 0.03 | 16.15 | 5.36 | 96 | 1012.3 |
| 20260509162159 | 19 | 92 | 1.6 | 4.8 | 0.03 | 16.15 | 5.36 | 96 | 1012.3 |
| 20260509161235 | 19 | 134 | 1.6 | 4.8 | 0.08 | 16.15 | 5.36 | 96 | 1012.1 |
| 20260509160734 | 19 | 135 | 1.6 | 4.8 | 0.13 | 16.15 | 5.36 | 96 | 1012.0 |
| 20260509160232 | 19 | 132 | 0.0 | 3.2 | 0.15 | 16.15 | 5.36 | 96 | 1012.1 |
| 20260509155735 | 19 | 132 | 0.0 | 1.6 | 0.15 | 16.00 | 5.36 | 96 | 1012.0 |
| 20260509155234 | 18 | 132 | 1.6 | 9.7 | 0.15 | 16.00 | 5.36 | 96 | 1012.2 |
| 20260509155223 | 18 | 132 | 1.6 | 9.7 | 0.15 | 16.00 | 5.36 | 96 | 1012.4 |
| 20260509154235 | 18 | 98 | 0.0 | 3.2 | 0.15 | 16.00 | 5.36 | 96 | 1012.4 |
| 20260509153733 | 18 | 98 | 0.0 | 3.2 | 0.15 | 16.00 | 5.36 | 96 | 1012.5 |
| 20260509153233 | 18 | 98 | 0.0 | 3.2 | 0.15 | 16.00 | 5.36 | 96 | 1012.5 |
| 20260509152736 | 18 | 97 | 0.0 | 1.6 | 0.13 | 16.00 | 5.33 | 96 | 1012.2 |
| 20260509152234 | 18 | 97 | 0.0 | 1.6 | 0.13 | 16.00 | 5.33 | 96 | 1012.3 |
| 20260509151733 | 18 | 97 | 0.0 | 3.2 | 0.13 | 16.00 | 5.31 | 96 | 1012.2 |
| 20260509151235 | 18 | 97 | 0.0 | 3.2 | 0.08 | 16.00 | 5.26 | 96 | 1012.1 |
| 20260509150734 | 18 | 98 | 1.6 | 4.8 | 0.05 | 16.00 | 5.23 | 96 | 1011.9 |
| 20260509150233 | 18 | 97 | 1.6 | 4.8 | 0.03 | 16.00 | 5.21 | 96 | 1012.1 |
| 20260509145735 | 18 | 111 | 0.0 | 1.6 | 0.05 | 15.98 | 5.21 | 96 | 1012.3 |
| 20260509145233 | 18 | 111 | 0.0 | 1.6 | 0.05 | 15.98 | 5.21 | 96 | 1012.2 |
| 20260509144734 | 18 | 111 | 0.0 | 6.4 | 0.05 | 15.98 | 5.21 | 96 | 1011.9 |
| 20260509144235 | 18 | 111 | 1.6 | 6.4 | 0.18 | 15.98 | 5.21 | 96 | 1011.7 |
| 20260509143733 | 18 | 90 | 1.6 | 6.4 | 0.20 | 15.98 | 5.21 | 96 | 1011.5 |
| 20260509143232 | 18 | 86 | 1.6 | 4.8 | 0.28 | 15.98 | 5.21 | 96 | 1011.3 |
| 20260509142726 | 18 | 63 | 0.0 | 3.2 | 0.53 | 15.98 | 5.21 | 96 | 1011.2 |
| 20260509142220 | 18 | 57 | 1.6 | 4.8 | 0.76 | 15.98 | 5.21 | 96 | 1011.4 |
| 20260509141714 | 18 | 57 | 1.6 | 4.8 | 0.94 | 15.98 | 5.21 | 96 | 1011.3 |
| 20260509141212 | 18 | 76 | 1.6 | 11.3 | 1.24 | 15.98 | 5.18 | 96 | 1011.5 |
| 20260509140712 | 18 | 136 | 1.6 | 11.3 | 1.47 | 15.98 | 5.18 | 96 | 1011.6 |
| 20260509140212 | 18 | 134 | 1.6 | 6.4 | 1.68 | 15.98 | 5.18 | 96 | 1011.6 |
| 20260509135714 | 18 | 133 | 1.6 | 6.4 | 1.73 | 14.22 | 5.16 | 96 | 1011.3 |
| 20260509135702 | 18 | 122 | 1.6 | 4.8 | 1.75 | 14.22 | 5.16 | 96 | 1011.3 |
| 20260509134710 | 18 | 123 | 1.6 | 4.8 | 1.78 | 14.22 | 5.13 | 96 | 1011.2 |
| 20260509134211 | 18 | 123 | 1.6 | 4.8 | 1.70 | 14.22 | 5.00 | 96 | 1011.5 |
| 20260509133710 | 18 | 133 | 1.6 | 4.8 | 1.78 | 14.22 | 4.98 | 96 | 1011.7 |
| 20260509133210 | 18 | 103 | 1.6 | 4.8 | 1.98 | 14.22 | 4.88 | 96 | 1011.7 |
| 20260509132711 | 18 | 173 | 0.0 | 3.2 | 1.96 | 14.22 | 4.62 | 96 | 1011.8 |
| 20260509132210 | 18 | 173 | 0.0 | 3.2 | 1.98 | 14.22 | 4.42 | 96 | 1011.6 |
| 20260509131710 | 18 | 173 | 0.0 | 3.2 | 1.93 | 14.22 | 4.22 | 96 | 1011.6 |
| 20260509131210 | 18 | 188 | 0.0 | 3.2 | 1.93 | 14.22 | 3.94 | 96 | 1012.0 |
| 20260509130708 | 18 | 188 | 0.0 | 3.2 | 1.96 | 14.22 | 3.66 | 96 | 1012.0 |
| 20260509130208 | 18 | 149 | 0.0 | 4.8 | 2.21 | 14.22 | 3.45 | 96 | 1011.5 |
| 20260509125708 | 18 | 128 | 1.6 | 4.8 | 2.62 | 11.84 | 3.40 | 96 | 1011.6 |
| 20260509125206 | 18 | 63 | 1.6 | 8.0 | 3.00 | 11.84 | 3.40 | 96 | 1011.4 |
| 20260509124705 | 18 | 126 | 1.6 | 8.0 | 3.28 | 11.84 | 3.38 | 96 | 1011.4 |
| 20260509124203 | 18 | 96 | 1.6 | 4.8 | 3.23 | 11.84 | 3.30 | 96 | 1011.6 |
| 20260509123703 | 18 | 167 | 1.6 | 4.8 | 3.12 | 11.84 | 3.17 | 96 | 1011.5 |
| 20260509123203 | 18 | 68 | 0.0 | 4.8 | 2.82 | 11.84 | 2.84 | 96 | 1011.7 |
| 20260509122703 | 18 | 139 | 1.6 | 6.4 | 2.54 | 11.84 | 2.62 | 96 | 1012.1 |
| 20260509122203 | 18 | 139 | 1.6 | 6.4 | 2.34 | 11.84 | 2.44 | 96 | 1011.9 |
| 20260509121704 | 18 | 72 | 1.6 | 6.4 | 2.21 | 11.84 | 2.24 | 96 | 1011.5 |
| 20260509121203 | 18 | 112 | 1.6 | 6.4 | 1.91 | 11.84 | 1.91 | 95 | 1011.7 |
| 20260509120703 | 18 | 114 | 3.2 | 12.9 | 1.65 | 11.84 | 1.70 | 95 | 1012.0 |
| 20260509120203 | 18 | 16 | 4.8 | 17.7 | 1.19 | 11.84 | 1.17 | 95 | 1011.7 |
| 20260509115703 | 18 | 46 | 6.4 | 17.7 | 0.71 | 10.90 | 0.74 | 95 | 1012.1 |
| 20260509115203 | 19 | 182 | 6.4 | 17.7 | 0.30 | 10.90 | 0.28 | 95 | 1011.3 |
| 20260509114703 | 20 | 306 | 4.8 | 16.1 | 0.00 | 10.90 | 0.10 | 95 | 1011.3 |
| 20260509114203 | 21 | 58 | 1.6 | 16.1 | 0.00 | 10.90 | 0.10 | 96 | 1011.5 |
| 20260509114122 | 21 | 5 | 0.0 | 3.2 | 0.00 | 10.90 | 0.10 | 96 | 1010.8 |
| 20260509113203 | 21 | 213 | 0.0 | 3.2 | 0.00 | 10.90 | 0.10 | 96 | 1010.5 |
| 20260509112703 | 21 | 213 | 0.0 | 3.2 | 0.00 | 10.90 | 0.10 | 96 | 1010.1 |
| 20260509112203 | 21 | 213 | 0.0 | 1.6 | 0.00 | 10.92 | 0.10 | 96 | 1009.7 |
| 20260509111703 | 21 | 213 | 0.0 | 1.6 | 0.00 | 10.92 | 0.10 | 96 | 1009.5 |
| 20260509111203 | 21 | 213 | 0.0 | 1.6 | 0.00 | 10.92 | 0.10 | 96 | 1009.3 |
| 20260509111040 | 21 | 213 | 0.0 | 1.6 | 0.00 | 10.92 | 0.10 | 96 | 1009.2 |
| 20260509110204 | 21 | 213 | 0.0 | 3.2 | 0.00 | 10.92 | 0.10 | 96 | 1009.0 |
| 20260509105703 | 21 | 213 | 0.0 | 3.2 | 0.00 | 10.92 | 0.10 | 96 | 1008.8 |
| 20260509105203 | 21 | 108 | 0.0 | 1.6 | 0.00 | 10.92 | 0.10 | 96 | 1008.5 |
| 20260509104703 | 21 | 108 | 0.0 | 1.6 | 0.00 | 10.92 | 0.10 | 96 | 1008.6 |
| 20260509104203 | 21 | 108 | 0.0 | 1.6 | 0.00 | 10.92 | 0.10 | 96 | 1008.8 |
| 20260509103703 | 21 | 108 | 0.0 | 1.6 | 0.00 | 10.92 | 0.10 | 96 | 1008.9 |
| 20260509103203 | 21 | 108 | 0.0 | 3.2 | 0.00 | 10.92 | 0.10 | 96 | 1008.9 |
| 20260509102702 | 21 | 108 | 0.0 | 3.2 | 0.00 | 10.92 | 0.10 | 96 | 1008.9 |
| 20260509102203 | 21 | 108 | 0.0 | 1.6 | 0.00 | 10.92 | 0.10 | 96 | 1009.0 |
| 20260509101703 | 21 | 108 | 0.0 | 1.6 | 0.00 | 10.92 | 0.10 | 96 | 1009.1 |
| 20260509101621 | 21 | 108 | 0.0 | 1.6 | 0.00 | 10.92 | 0.10 | 96 | 1009.1 |
| 20260509100703 | 21 | 108 | 0.0 | 1.6 | 0.00 | 10.92 | 0.10 | 96 | 1009.1 |
| 20260509100202 | 21 | 108 | 0.0 | 3.2 | 0.00 | 10.92 | 0.10 | 96 | 1008.8 |
| 20260509095703 | 21 | 108 | 0.0 | 3.2 | 0.00 | 10.92 | 0.10 | 96 | 1008.8 |
| 20260509095202 | 20 | 223 | 0.0 | 3.2 | 0.00 | 10.92 | 0.10 | 96 | 1008.7 |
| 20260509094703 | 20 | 225 | 0.0 | 3.2 | 0.00 | 10.92 | 0.10 | 96 | 1008.5 |
| 20260509094203 | 20 | 87 | 0.0 | 3.2 | 0.00 | 10.92 | 0.10 | 96 | 1008.3 |
| 20260509093702 | 20 | 88 | 0.0 | 1.6 | 0.00 | 10.92 | 0.10 | 96 | 1008.3 |
| 20260509093202 | 20 | 88 | 0.0 | 3.2 | 0.00 | 10.92 | 0.10 | 96 | 1008.3 |
| 20260509092702 | 20 | 88 | 0.0 | 3.2 | 0.00 | 10.92 | 0.10 | 96 | 1008.3 |
| 20260509092203 | 20 | 131 | 0.0 | 6.4 | 0.00 | 10.92 | 0.10 | 96 | 1008.5 |
| 20260509091703 | 20 | 131 | 1.6 | 6.4 | 0.00 | 10.92 | 0.10 | 96 | 1008.4 |
| 20260509091202 | 21 | 116 | 1.6 | 9.7 | 0.00 | 10.92 | 0.10 | 96 | 1008.4 |
| 20260509090703 | 21 | 116 | 1.6 | 9.7 | 0.00 | 10.92 | 0.10 | 96 | 1008.6 |
| 20260509090203 | 21 | 129 | 0.0 | 3.2 | 0.00 | 10.92 | 0.10 | 96 | 1008.6 |
| 20260509085704 | 21 | 129 | 1.6 | 8.0 | 0.00 | 10.92 | 0.10 | 96 | 1008.6 |
| 20260509085203 | 21 | 125 | 1.6 | 8.0 | 0.00 | 10.92 | 0.10 | 96 | 1008.9 |
| 20260509084703 | 21 | 98 | 0.0 | 4.8 | 0.00 | 10.92 | 0.10 | 96 | 1008.9 |
| 20260509084202 | 21 | 97 | 0.0 | 3.2 | 0.00 | 10.92 | 0.10 | 96 | 1009.2 |
| 20260509083703 | 21 | 97 | 0.0 | 4.8 | 0.00 | 10.92 | 0.10 | 96 | 1009.2 |
| 20260509083203 | 21 | 97 | 0.0 | 4.8 | 0.00 | 10.92 | 0.10 | 96 | 1009.2 |
| 20260509082703 | 21 | 113 | 0.0 | 3.2 | 0.00 | 10.92 | 0.10 | 96 | 1009.2 |
| 20260509082203 | 21 | 113 | 1.6 | 9.7 | 0.03 | 10.92 | 0.10 | 96 | 1009.4 |